Location: Camps Bay
(33.9517°S, 18.3844°E)
Time: 00:12:37
(UTC+00:00)

STARLINK-1042 - Pass Details

Date: 18 January 2020
Orbit: 548 x 551 km, 53.0° (Epoch: 28 February)

Event Time Altitude Azimuth Distance (km) Brightness Sun altitude
Rises 03:20:26 0° 228° (SW) 2,742 7.0 -6.8°
Reaches altitude 10° 03:22:42 10° 231° (SW) 1,842 6.1 -6.4°
Maximum altitude 03:26:51 63° 312° (NW) 620 3.6 -5.7°
Drops below altitude 10° 03:30:57 10° 33° (NNE) 1,822 6.3 -5.0°
Sets 03:33:11 0° 36° (NE) 2,709 7.3 -4.6°
